[[{"header":{"parameterUnit":"m.s-1","parameterCategory":1,"la1":30.2991,"la2":30.254,"lo1":-89.0895,"lo2":-89.0444,"dy":0.0017,"dx":0.0017,"nx":28,"ny":28,"refTime":"2024-10-02T21:00:00:Z","depth":0,"parameterNumber":2,"parameterNumberName":"U-component_of_WINDS"},"data":[0,0,0,0,0,0,0,0,0,0,0,0,0,0,0,0,0,0,0,0,0,0,0,0,0,0,0,0,0,0,0,0,0,0,0,0,0,0,0,0,0,0,0,0,0,0,0,0,0,0,0,0,0,0,0,0,0,0,-5.7232,-5.7232,0,-5.7268,-5.7269,-5.7269,-5.7105,-5.71,-5.7095,-5.7091,-5.7127,-5.7133,-5.7138,0,0,0,0,0,0,0,0,0,0,0,0,0,-5.7018,-5.7023,-5.7232,-5.7232,-5.7233,-5.7268,-5.7269,-5.7269,-5.7106,-5.71,-5.7094,-5.7088,-5.7126,-5.7132,-5.7139,0,0,0,0,0,0,0,0,0,0,0,0,0,-5.7089,-5.7024,-5.7232,-5.7155,-5.7149,-5.7268,-5.7269,-5.727,-5.7107,-5.71,-5.7092,-5.7086,-5.7123,-5.7131,-5.7139,-5.7334,0,0,-5.7164,-5.7168,0,0,0,0,0,0,0,0,-5.7085,-5.7097,-5.7166,-5.7161,-5.7154,-5.7175,-5.7207,-5.7291,-5.7109,-5.7123,-5.709,-5.7082,-5.7149,-5.7155,-5.7177,-5.7336,-5.7337,-5.7165,-5.717,-5.7174,-5.7176,0,0,0,0,0,0,0,-5.708,-5.7094,-5.7246,-5.7167,-5.716,-5.7119,-5.7121,-5.7222,-5.7176,-5.7121,-5.7109,-5.7116,-5.7144,-5.717,-5.7177,-5.7338,-5.7165,-5.7172,-5.7177,-5.718,-5.7655,-5.7663,0,0,0,0,0,0,-5.7086,-5.7091,-5.7245,-5.7247,-5.7101,-5.7128,-5.7131,-5.7175,-5.7174,-5.7167,-5.7122,-5.7108,-5.7159,-5.7167,-5.7177,-5.7403,-5.7174,-5.7181,-5.7186,-5.7648,-5.7657,-5.7665,0,0,0,0,0,0,-5.7082,-5.7101,-5.7243,-5.7166,-5.7181,-5.714,-5.7191,-5.718,-5.7205,-5.7175,-5.7166,-5.7157,-5.7154,-5.7166,-5.7296,-5.7402,-5.7185,-5.7192,-5.7639,-5.765,-5.7661,-5.7857,0,0,0,0,0,0,-5.7076,-5.71,-5.7174,-5.7169,-5.7186,-5.7362,-5.7198,-5.7186,-5.722,-5.7202,-5.7205,-5.7199,-5.7149,-5.7284,-5.7304,-5.7409,-5.7199,-5.7629,-5.7644,-5.7657,-5.7841,-5.7874,-5.7902,0,0,0,0,0,-5.7069,-5.7228,-5.7179,-5.7198,-5.7277,-5.7369,-5.7378,-5.7318,-5.7229,-5.7302,-5.7283,-5.7198,-5.7388,-5.7299,-5.732,-5.7429,-5.7622,-5.764,-5.7656,-5.7827,-5.7868,-5.7902,0,0,0,0,0,0,-5.7247,-5.7226,-5.7171,-5.7334,-5.7354,-5.7341,-5.7431,-5.7363,-5.741,-5.7391,-5.7315,-5.7317,-5.7459,-5.7457,-5.7359,-5.7616,-5.7489,-5.7511,-5.7612,-5.765,-5.768,-5.7677,-5.7206,0,0,0,0,0,-5.7305,-5.7382,-5.7359,-5.7505,-5.7518,-5.7474,-5.7511,-5.7463,-5.7481,-5.7489,-5.7479,-5.75,-5.7563,-5.7607,-5.7664,-5.7841,-5.7838,-5.7926,-5.7957,-5.7982,-5.8001,-5.8093,-5.8131,-5.7722,-5.7722,-5.7722,0,0,-5.7426,-5.7424,-5.7477,-5.754,-5.7551,-5.763,-5.7482,-5.7573,-5.7631,-5.7503,-5.7624,-5.7618,-5.7636,-5.7789,-5.7857,-5.7792,-5.8114,-5.8004,-5.8025,-5.803,-5.8114,-5.8153,-5.8188,-5.7734,-5.7732,-5.773,0,0,-5.7686,-5.7694,-5.7814,-5.7828,-5.7846,-5.7815,-5.7845,-5.7842,-5.7832,-5.7953,-5.7858,-5.7926,-5.8038,-5.8054,-5.8077,-5.8344,-5.8267,-5.8365,-5.8524,-5.8614,-5.8646,-5.8674,-5.8767,-5.8801,-5.8385,-5.8385,-5.8386,0,-5.7834,-5.7951,-5.7885,-5.7983,-5.8012,-5.7901,-5.8021,-5.8038,-5.8074,-5.8096,-5.8024,-5.8161,-5.8166,-5.832,-5.8385,-5.8409,-5.8438,-5.8363,-5.8647,-5.8674,-5.8699,-5.8787,-5.8822,-5.8397,-5.8395,-5.8394,-5.8393,0,-5.813,-5.8213,-5.8308,-5.8345,-5.8386,-5.8496,-5.8445,-5.8495,-5.8444,-5.8421,-5.8545,-5.8546,-5.8601,-5.8634,-5.8586,-5.8782,-5.8741,-5.866,-5.853,-5.8751,-5.8832,-5.8865,-5.8413,-5.8409,-5.8406,-5.8403,0,0,-5.8501,-5.8501,-5.8537,-5.8552,-5.8564,-5.8626,-5.873,-5.8783,-5.8826,-5.8855,-5.8938,-5.9036,-5.896,-5.8986,-5.8938,-5.9018,-5.9226,-5.8925,-5.8924,-5.8979,-5.944,-5.95,-5.954,-5.9176,-5.9182,-5.9187,-5.9438,0,-5.8754,-5.8931,-5.8875,-5.9054,-5.9128,-5.9023,-5.9113,-5.913,-5.9112,-5.9172,-5.9151,-5.922,-5.9116,-5.913,-5.9205,-5.9185,-5.9317,-5.9167,-5.9251,-5.9255,-5.9248,-5.9582,-5.9646,-5.9882,-5.9469,-5.9474,-5.9478,0,-5.9072,-5.9114,-5.93,-5.9298,-5.9327,-5.9409,-5.9452,-5.9512,-5.9528,-5.9509,-5.9539,-5.9475,-5.9575,-5.9447,-5.9583,-5.9482,-5.9514,-5.951,-5.9517,-5.9521,-5.9378,-5.9592,-5.9956,-5.9991,-5.9528,-5.9524,-5.952,0,-5.9322,-5.9424,-5.9548,-5.9564,-5.9566,-5.9625,-5.9629,-5.9638,-5.9673,-5.9712,-5.9734,-5.9784,-5.9811,-5.9851,-5.9802,-5.9714,-5.9945,-5.9813,-5.993,-5.9931,-5.9981,-5.9978,-6.0352,-6.0007,-6.0006,-6.0006,-6.0005,0,-5.9608,-5.9725,-5.9659,-5.9735,-5.9863,-5.9798,-5.9926,-5.9918,-5.9927,-5.9999,-5.9912,-5.9981,-5.9913,-5.9975,-5.9937,-6.0055,-6.0068,-6.0054,-6.0042,-6.0061,-6.0062,-6.0078,-6.006,-6.0015,-6.0013,-6.0011,-6.001,0,-5.9906,-5.9868,-5.9995,-5.9986,-5.9987,-6.0081,-6.0073,-6.0142,-6.0118,-6.021,-6.0228,-6.019,-6.0259,-6.0214,-6.0284,-6.0258,-6.0411,-6.0378,-6.0406,-6.0396,-6.0514,-6.0502,-6.0909,-6.0958,-6.0585,-6.0588,-6.0591,0,-6.009,-6.0178,-6.0179,-6.0221,-6.023,-6.0299,-6.0335,-6.0274,-6.0315,-6.034,-6.0406,-6.0468,-6.0514,-6.0629,-6.0607,-6.066,-6.0625,-6.0765,-6.0633,-6.0648,-6.0624,-6.0618,-6.0626,-6.079,-6.0795,-6.0798,-6.0801,0,-6.042,-6.0396,-6.0451,-6.0501,-6.0546,-6.0581,-6.0609,-6.0649,-6.0588,-6.0638,-6.0708,-6.0744,-6.0815,-6.0877,-6.0921,-6.0923,-6.0852,-6.0844,-6.0873,-6.0891,-6.0902,-6.0894,-6.0475,-6.0834,-6.083,-6.0828,-6.0826,-6.0825,-6.0664,-6.0737,-6.0748,-6.0813,-6.0828,-6.0856,-6.092,-6.0905,-6.0962,-6.1015,-6.0976,-6.1059,-6.1072,-6.1124,-6.1135,-6.1198,-6.1141,-6.1184,-6.1195,-6.1205,-6.1221,-6.0895,-6.1206,-6.1205,-6.1204,-6.1203,-6.1203,0,-6.0987,-6.0989,-6.1049,-6.1092,-6.1142,-6.1073,-6.11,-6.1146,-6.122,-6.1239,-6.1286,-6.1366,-6.1425,-6.1409,-6.1462,-6.1515,-6.1484,-6.1531,-6.1525,-6.1526,-6.127,-6.1238,-6.1555,-6.1555,-6.1555,-6.1555,-6.1555,-6.1555,-6.116,-6.1278,-6.1256,-6.1381,-6.1382,-6.1462,-6.1484,-6.1509,-6.1524,-6.1617,-6.1666,-6.1655,-6.1659,-6.1712,-6.1763,-6.1756,-6.1779,-6.1837,-6.1819,-6.1579,-6.1544,-6.1511,-6.148,-6.1843,-6.1844,-6.2069,-6.2071,-6.2073]},{"header":{"parameterUnit":"m.s-1","parameterCategory":1,"la1":30.2991,"la2":30.254,"lo1":-89.0895,"lo2":-89.0444,"dy":0.0017,"dx":0.0017,"nx":28,"ny":28,"refTime":"2024-10-02T21:00:00:Z","depth":0,"parameterNumber":3,"parameterNumberName":"V-component_of_WINDS"},"data":[0,0,0,0,0,0,0,0,0,0,0,0,0,0,0,0,0,0,0,0,0,0,0,0,0,0,0,0,0,0,0,0,0,0,0,0,0,0,0,0,0,0,0,0,0,0,0,0,0,0,0,0,0,0,0,0,0,0,-0.4999,-0.5,0,-0.5081,-0.5082,-0.5083,-0.513,-0.513,-0.513,-0.5131,-0.5218,-0.522,-0.5222,0,0,0,0,0,0,0,0,0,0,0,0,0,-0.4885,-0.4887,-0.4999,-0.5,-0.5001,-0.5081,-0.5082,-0.5083,-0.513,-0.513,-0.513,-0.5131,-0.5217,-0.522,-0.5222,0,0,0,0,0,0,0,0,0,0,0,0,0,-0.4948,-0.4888,-0.4999,-0.5034,-0.5038,-0.5081,-0.5082,-0.5084,-0.513,-0.513,-0.513,-0.5131,-0.5216,-0.522,-0.5223,-0.5238,0,0,-0.5233,-0.5234,0,0,0,0,0,0,0,0,-0.4944,-0.4952,-0.5028,-0.5032,-0.5036,-0.5096,-0.5074,-0.5136,-0.513,-0.5095,-0.5131,-0.5131,-0.5177,-0.5184,-0.5199,-0.5242,-0.5246,-0.5233,-0.5235,-0.5236,-0.5237,0,0,0,0,0,0,0,-0.494,-0.4949,-0.5032,-0.5029,-0.5034,-0.5046,-0.5056,-0.5086,-0.5134,-0.5098,-0.5102,-0.5111,-0.518,-0.5195,-0.5201,-0.5247,-0.5233,-0.5236,-0.5238,-0.5239,-0.5306,-0.5306,0,0,0,0,0,0,-0.493,-0.4945,-0.5029,-0.5034,-0.499,-0.5048,-0.5059,-0.5076,-0.5134,-0.5143,-0.511,-0.5113,-0.519,-0.5197,-0.5204,-0.5225,-0.5236,-0.5239,-0.5241,-0.5306,-0.5306,-0.5306,0,0,0,0,0,0,-0.4927,-0.4937,-0.5026,-0.499,-0.5003,-0.505,-0.507,-0.5078,-0.5094,-0.5143,-0.5152,-0.5118,-0.519,-0.52,-0.5229,-0.5229,-0.5241,-0.5244,-0.5307,-0.5306,-0.5306,-0.5267,0,0,0,0,0,0,-0.4923,-0.4935,-0.4941,-0.499,-0.5004,-0.5048,-0.507,-0.5079,-0.5099,-0.5102,-0.5152,-0.5161,-0.5191,-0.5224,-0.5232,-0.5234,-0.5246,-0.5307,-0.5306,-0.5306,-0.5269,-0.5266,-0.5263,0,0,0,0,0,-0.4919,-0.4928,-0.4941,-0.4951,-0.5013,-0.5048,-0.5056,-0.509,-0.5099,-0.5105,-0.5136,-0.5159,-0.5227,-0.5226,-0.5236,-0.5239,-0.5307,-0.5306,-0.5306,-0.527,-0.5266,-0.5263,0,0,0,0,0,0,-0.488,-0.4935,-0.495,-0.4975,-0.5006,-0.5056,-0.5065,-0.5085,-0.5116,-0.5118,-0.516,-0.5171,-0.5196,-0.522,-0.5218,-0.5256,-0.527,-0.5271,-0.5239,-0.5236,-0.5233,-0.5226,-0.5249,0,0,0,0,0,-0.4873,-0.4896,-0.4944,-0.4962,-0.4976,-0.5018,-0.5035,-0.5058,-0.5092,-0.5106,-0.514,-0.5173,-0.5202,-0.522,-0.525,-0.5272,-0.5284,-0.5279,-0.5276,-0.5273,-0.5274,-0.5287,-0.5285,-0.5305,-0.5305,-0.5305,0,0,-0.4861,-0.4895,-0.4907,-0.4954,-0.4981,-0.5005,-0.5029,-0.5053,-0.5071,-0.511,-0.5139,-0.5165,-0.5205,-0.523,-0.5243,-0.5251,-0.5271,-0.5273,-0.527,-0.5273,-0.5286,-0.5285,-0.5283,-0.5304,-0.5304,-0.5304,0,0,-0.4852,-0.4879,-0.4896,-0.4922,-0.4961,-0.4989,-0.4992,-0.5039,-0.5057,-0.5086,-0.5115,-0.5138,-0.5187,-0.5214,-0.5234,-0.5232,-0.5254,-0.5241,-0.5226,-0.5238,-0.5237,-0.5235,-0.5234,-0.5233,-0.5242,-0.5241,-0.5241,0,-0.4832,-0.4868,-0.4902,-0.4924,-0.4944,-0.4979,-0.4996,-0.502,-0.5068,-0.5081,-0.5089,-0.515,-0.518,-0.5211,-0.5211,-0.5226,-0.5232,-0.5235,-0.5234,-0.5233,-0.5232,-0.5232,-0.5231,-0.524,-0.524,-0.524,-0.524,0,-0.4841,-0.4866,-0.4875,-0.4918,-0.4938,-0.4958,-0.4996,-0.5013,-0.5034,-0.506,-0.5089,-0.5126,-0.5163,-0.5172,-0.5194,-0.5207,-0.521,-0.5225,-0.524,-0.5228,-0.5228,-0.5228,-0.5237,-0.5238,-0.5238,-0.5239,0,0,-0.481,-0.487,-0.4873,-0.4892,-0.4938,-0.4958,-0.4979,-0.5013,-0.5026,-0.5058,-0.5076,-0.5116,-0.513,-0.5153,-0.5178,-0.5189,-0.5184,-0.5203,-0.5204,-0.5197,-0.5199,-0.5187,-0.5186,-0.5198,-0.5198,-0.5198,-0.5195,0,-0.4806,-0.4844,-0.4875,-0.4902,-0.4924,-0.4957,-0.4975,-0.5005,-0.503,-0.5053,-0.5082,-0.5109,-0.5125,-0.5139,-0.5151,-0.5182,-0.5185,-0.5182,-0.5216,-0.5217,-0.5204,-0.5186,-0.5173,-0.5169,-0.5196,-0.5196,-0.5196,0,-0.4807,-0.4835,-0.4863,-0.4905,-0.4916,-0.4931,-0.4964,-0.4986,-0.5021,-0.5038,-0.5062,-0.5088,-0.5112,-0.5124,-0.5157,-0.5155,-0.5171,-0.5188,-0.5189,-0.5193,-0.5205,-0.5189,-0.5168,-0.5167,-0.5196,-0.5196,-0.5196,0,-0.478,-0.4825,-0.4847,-0.4863,-0.4913,-0.4923,-0.4944,-0.4979,-0.4997,-0.5026,-0.5038,-0.5071,-0.5089,-0.5113,-0.5147,-0.5153,-0.5177,-0.5192,-0.5192,-0.5191,-0.5196,-0.5195,-0.5176,-0.5206,-0.5206,-0.5206,-0.5206,0,-0.4772,-0.4788,-0.4836,-0.4849,-0.4868,-0.4903,-0.4921,-0.4945,-0.4976,-0.4995,-0.5026,-0.5044,-0.5087,-0.511,-0.5137,-0.516,-0.5168,-0.5183,-0.519,-0.518,-0.5178,-0.5191,-0.5192,-0.5206,-0.5206,-0.5206,-0.5206,0,-0.4746,-0.4778,-0.4804,-0.4848,-0.4859,-0.4871,-0.4909,-0.4924,-0.495,-0.4974,-0.4981,-0.5023,-0.5051,-0.5087,-0.5128,-0.5146,-0.5166,-0.5177,-0.5153,-0.5157,-0.5155,-0.5154,-0.5144,-0.5144,-0.5174,-0.5173,-0.5173,0,-0.4738,-0.4751,-0.4795,-0.4809,-0.4829,-0.4852,-0.487,-0.4906,-0.4924,-0.4963,-0.4973,-0.5003,-0.5029,-0.5074,-0.5108,-0.5139,-0.515,-0.5144,-0.5155,-0.5144,-0.5149,-0.5148,-0.5149,-0.5142,-0.5141,-0.5141,-0.514,0,-0.4722,-0.4737,-0.4761,-0.479,-0.481,-0.4836,-0.4862,-0.4873,-0.4914,-0.4932,-0.496,-0.4981,-0.5021,-0.5051,-0.5085,-0.5109,-0.5131,-0.5136,-0.5138,-0.5128,-0.5113,-0.512,-0.5145,-0.5137,-0.5137,-0.5137,-0.5137,-0.5138,-0.4704,-0.4716,-0.4749,-0.4774,-0.4798,-0.4821,-0.4837,-0.4864,-0.4888,-0.4922,-0.4942,-0.4969,-0.5003,-0.5052,-0.5074,-0.5096,-0.5105,-0.5107,-0.5108,-0.5108,-0.5104,-0.511,-0.5103,-0.5103,-0.5104,-0.5104,-0.5104,0,-0.4689,-0.4711,-0.4734,-0.4769,-0.4789,-0.4807,-0.4837,-0.4853,-0.4876,-0.4905,-0.4929,-0.4961,-0.499,-0.5025,-0.5057,-0.5068,-0.5079,-0.5075,-0.5074,-0.5079,-0.5095,-0.509,-0.5065,-0.5065,-0.5065,-0.5065,-0.5065,-0.5065,-0.4683,-0.4704,-0.4722,-0.4755,-0.4777,-0.4803,-0.4818,-0.4841,-0.4863,-0.4897,-0.492,-0.4943,-0.4975,-0.5008,-0.5035,-0.5045,-0.5055,-0.5047,-0.506,-0.5075,-0.5078,-0.5081,-0.5077,-0.5049,-0.5049,-0.5042,-0.5042,-0.5042]}]]